Flag for USA

Past Weather in 40°43'49"N, 74°00'37"W, USA — Yesterday and Last 2 Weeks

Now
70 °F

Clear.


Feels Like: 77 °F
Forecast: 80 / 62 °F
Wind: No wind

Location: New York City - Central Park
Current Time: Sep 24, 2020 at 9:29:02 pm
Latest Report: Sep 24, 2020 at 8:51 pm
Visibility: 10 mi
Pressure30.01 "Hg
Humidity: 55%
Dew Point: 53 °F
Location of 40°43'49"N, 74°00'37"WLocation

Past Weather in 40°43'49"N, 74°00'37"W — Graph

°F

40°43'49"N, 74°00'37"W Temperature Yesterday

Maximum temperature yesterday: 79 °F (at 3:51 pm)
Minimum temperature yesterday: 58 °F (at 4:51 am)
Average temperature yesterday: 69 °F

High & Low Weather Summary for the Past Weeks

 TemperatureHumidityPressure
High81 °F (Sep 10, 12:51 pm)97% (Sep 10, 2:03 am)30.58 "Hg (Sep 10, 2:03 am)
Low49 °F (Sep 22, 4:51 am)24% (Sep 19, 6:51 pm)29.59 "Hg (Sep 16, 7:51 pm)
Average66 °F62%30.18 "Hg
* Reported Sep 9 7:51 pm — Sep 24 7:51 pm, 40°43'49"N, 74°00'37"W. Weather by CustomWeather, © 2020

Note: Actual official high and low records may vary slightly from our data, if they occured in-between our weather recording intervals... More about our weather records

40°43'49"N, 74°00'37"W Weather History for the Previous 24 Hours

Scroll right to see more
 ConditionsComfort  
Time TempWeatherWind HumidityBarometerVisibility
7:51 pm
Thu, Sep 24
70 °FClear.3 mph55%30.00 "Hg10 mi
6:51 pm71 °FClear.3 mph51%29.99 "Hg10 mi
5:51 pm72 °FSunny.3 mph49%29.98 "Hg10 mi
4:51 pm73 °FSunny.5 mph51%29.97 "Hg10 mi
3:51 pm74 °FSunny.6 mph46%29.97 "Hg10 mi
2:51 pm74 °FSunny.No wind48%29.98 "Hg10 mi
1:51 pm75 °FSunny.No wind47%29.98 "Hg10 mi
12:51 pm73 °FSunny.5 mph51%29.99 "Hg10 mi
11:51 am73 °FSunny.3 mph50%30.00 "Hg10 mi
10:51 am71 °FSunny.3 mph49%30.01 "Hg10 mi
9:51 am69 °FSunny.No wind61%30.00 "Hg10 mi
8:51 am67 °FSunny.3 mph63%29.99 "Hg10 mi
7:51 am64 °FSunny.No wind68%29.97 "Hg10 mi
6:51 am63 °FSunny.3 mph68%29.96 "Hg10 mi
5:51 am63 °FClear.5 mph68%29.94 "Hg10 mi
4:51 am62 °FClear.No wind70%29.93 "Hg10 mi
3:51 am64 °FClear.3 mph65%29.93 "Hg10 mi
2:51 am64 °FClear.3 mph65%29.92 "Hg10 mi
1:51 am67 °FClear.No wind57%29.92 "Hg10 mi
12:51 am68 °FClear.No wind55%29.92 "Hg10 mi
11:51 pm
Wed, Sep 23
70 °FClear.No wind51%29.92 "Hg10 mi
10:51 pm70 °FClear.5 mph51%29.91 "Hg10 mi
9:51 pm72 °FClear.5 mph48%29.90 "Hg10 mi
Weather by CustomWeather, © 2020

See weather overview